Location: Newark
(43.4306°N, 0.3089°E)
Time: 01:56:13
(UTC+00:00)

S-56A Canister/Altair - Pass Details

Date: 25 August 2019
Orbit: 633 x 2499 km, 38.9° (Epoch: 17 September)

Event Time Altitude Azimuth Distance (km) Brightness Sun altitude
Rises 20:28:45 0° 241° (WSW) 3,478 11.3 -17.6°
Reaches altitude 10° 20:31:41 10° 234° (SW) 2,337 10.2 -18.0°
Maximum altitude 20:36:28 38° 167° (SSE) 1,023 7.8 -18.7°
Enters shadow 20:36:57 37° 151° (SSE) 1,034 7.7 -18.8°
Drops below altitude 10° 20:40:35 10° 98° (E) 2,011 - -19.3°
Sets 20:42:56 0° 90° (E) 2,928 - -19.7°
